sat.trackr.live / text

‹ back to catalog

STARLINK-3580

NORAD 51781 · 2022-017P

PAYLOAD ACTIVE UNKNOWN

§ Identity

Operator
Country
US
Launch date
2022-02-25
Launch site
AFWTR
Launch vehicle
Mass (kg)
RCS (m²)

Purposes: comms

External: N2YO · Heavens-Above · Gunter

§ Orbital elements

Epoch: 2026-09-20T03:06:24.790176Z

Period
93.79 min
Inclination
53.1590°
Eccentricity
0.0001161
Mean motion
15.35387060 rev/d
Perigee alt
459.0 km
Apogee alt
460.6 km
Semi-major
6,837.9 km
B*
7.0470e-5
RAAN
173.6466°
Arg perigee
80.7534°
Mean anomaly
279.3601°
Rev number
25,194

§ Raw data

STARLINK-35801 51781U 22017P   26263.12945359  .00002077  00000+0  70470-4 0  99982 51781  53.1590 173.6466 0001161  80.7534 279.3601 15.35387060251943

JSON: /api/v1/satellites/51781 · /tle

For live sub-satellite position, see the globe view (requires WebGL).

§ Visibility from observer

Set your observer location to see the next 7 days of passes ≥ 10°. The values pass through the URL so the page stays shareable.

No JS? Fill the form by hand. The geolocation button needs JavaScript.